Hourly Weather Roundup
Issued by NWS Central Illinois

Current Version | Previous Version | Text Only | Print | Product List | Glossary On
Versions: 1 2 3 4 5 6 7 8 9 10 11 12 13 14 15 16 17 18 19 20 21 22 23 24 25 26 27 28 29 30 31 32 33 34 35 36 37 38 39 40 41 42 43 44 45 46 47 48 49 50
000
NZUS43 KILX 281810
HWRILX

Area Weather Roundup
National Weather Service Lincoln IL
100 PM CDT FRI APR 28 2017

NOTE:  "FAIR" indicates few or no clouds below 12,000 feet, with
       no sigificant weather and/or obstructions to visibility.


CITY           SKY/WX    TMP DP  RH WIND       PRES   REMARKS
Bloomington    LGT RAIN  55  50  83 SE15G22   29.88F
6HR MIN TEMP:  47; 6HR MAX TEMP:  55; 6HR PCP: TRACE;

Champaign      LGT RAIN  55  50  83 SE15      29.89F
6HR MIN TEMP:  48; 6HR MAX TEMP:  56; 6HR PCP:  0.01;

Danville       CLOUDY    55  50  83 SE13      29.91R
6HR MIN TEMP:  47; 6HR MAX TEMP:  55;

Decatur        LGT RAIN  55  53  93 SE14      29.87F
6HR MIN TEMP:  49; 6HR MAX TEMP:  56; 6HR PCP:  0.01;

Effingham      CLOUDY    57  54  89 E8G17     29.89F
6HR MIN TEMP:  50; 6HR MAX TEMP:  57; 6HR PCP:  0.02;

Flora          CLOUDY    60  54  81 E9        29.86F
6HR MIN TEMP:  52; 6HR MAX TEMP:  60; 6HR PCP:  0.01;

Galesburg      LGT RAIN  48  47  95 NE12      29.83F
6HR MIN TEMP:  41; 6HR MAX TEMP:  48; 6HR PCP:  0.04;

Jacksonville   LGT RAIN  55  53  92 SE8       29.82F
6HR MIN TEMP:  50; 6HR MAX TEMP:  56; 6HR PCP:  0.05;

Lacon          DRIZZLE   52  49  92 SE9       29.87F
6HR MIN TEMP:  42; 6HR MAX TEMP:  55;

Lawrenceville  CLOUDY    59  52  77 E9        29.91F
6HR MIN TEMP:  50; 6HR MAX TEMP:  59; 6HR PCP: TRACE;

Litchfield     CLOUDY    53  51  94 SE9       29.83F
6HR MIN TEMP:  50; 6HR MAX TEMP:  55; 6HR PCP:  0.03;

$$


CITY           SKY/WX    TMP DP  RH WIND       PRES   REMARKS
Lincoln        LGT RAIN  58  54  87 SE9G17    29.85F
6HR MIN TEMP:  50; 6HR MAX TEMP:  58;

Macomb         LGT RAIN  54  53  98 SE10      29.83F
6HR MIN TEMP:  44; 6HR MAX TEMP:  54; 6HR PCP:  0.11;

Mattoon        CLOUDY    52  51  97 SE12      29.88F
6HR MIN TEMP:  49; 6HR MAX TEMP:  53; 6HR PCP:  0.11;

Mt Carmel AP   CLOUDY    60  52  74 E9        29.89S
6HR MIN TEMP:  51; 6HR MAX TEMP:  60;

Olney-Noble AP CLOUDY    59  57  94 CALM      29.87F
Paris AP       LGT RAIN  52  51  95 E12       29.90F
6HR MIN TEMP:  48; 6HR MAX TEMP:  53; 6HR PCP:  0.04;

Peoria         LGT RAIN  52  52 100 E7        29.85F FOG
6HR MIN TEMP:  48; 6HR MAX TEMP:  56; 6HR PCP:  0.11;

Pontiac        CLOUDY    56  52  86 SE10      29.91S
6HR MIN TEMP:  48; 6HR MAX TEMP:  56;

Rantoul        CLOUDY    58  53  82 SE18      29.90S
6HR MIN TEMP:  50; 6HR MAX TEMP:  58;

Robinson       CLOUDY    56  51  81 SE9       29.93R
6HR MIN TEMP:  48; 6HR MAX TEMP:  57;

Springfield    LGT RAIN  59  53  80 SE13      29.84F
6HR MIN TEMP:  51; 6HR MAX TEMP:  59; 6HR PCP:  0.02;

Taylorville    LGT RAIN  54  52  95 SE12G18   29.85F
6HR MIN TEMP:  49; 6HR MAX TEMP:  56; 6HR PCP:  0.03;

$$

...REGIONAL REPORTS...


CITY           SKY/WX    TMP DP  RH WIND       PRES   REMARKS
Chicago O`Hare CLOUDY    58  46  64 SE9       29.93S
Kankakee       CLOUDY    56  48  75 E8        29.92S
Moline         LGT RAIN  45  41  86 E14       29.86F FOG
Mount Sterling LGT RAIN  54  53  97 SE10      29.79F
Mount Vernon   CLOUDY    62  55  77 E9        29.83F
Pittsfield     LGT RAIN  55  54  97 SE8       29.80F
Quincy         LGT RAIN  55  54  96 SE18G29   29.73F
Rockford       LGT RAIN  50  39  66 VRB5      29.95F
$$


CITY           SKY/WX    TMP DP  RH WIND       PRES   REMARKS
Burlington     CLOUDY    46  46 100 NE15      29.81F FOG
Cedar Rapids   LGT RAIN  41  38  89 NE16      29.86F WCI  33
Des Moines     LGT RAIN  40  36  86 NE16G24   29.83F FOG     WCI  31
Kirksville     CLOUDY    48  50 100 NE14      29.74F HAZE
Ottumwa        LGT RAIN  42  40  92 NE16      29.79F FOG     WCI  34
St Louis       TSTM      56  53  90 E12       29.77F
$$


CITY           SKY/WX    TMP DP  RH WIND       PRES   REMARKS
Terre Haute    CLOUDY    56  49  77 SE10      29.91F
Evansville     CLOUDY    67  55  65 E10       29.87F
Indianapolis   CLOUDY    57  48  72 SE10      29.97F
Lafayette      CLOUDY    55  49  80 SE8       29.94F
Madison        CLOUDY    46  30  53 VRB5      29.93R
Milwaukee      CLOUDY    49  38  65 SE10      29.95R
$$






USA.gov is the U.S. government's official web portal to all federal, state and local government web resources and services.